TimePDT,TemperatureF,Dew PointF,Humidity,Sea Level PressureIn,VisibilityMPH,Wind Direction,Wind SpeedMPH,Gust SpeedMPH,PrecipitationIn,Events,Conditions,WindDirDegrees,DateUTC
12:53 AM,63.0,37.9,40,29.79,10.0,Calm,Calm,-,N/A,,Clear,0,2013-06-15 07:53:00
1:53 AM,59.0,42.1,53,29.78,10.0,Calm,Calm,-,N/A,,Clear,0,2013-06-15 08:53:00
2:53 AM,63.0,43.0,48,29.78,10.0,SW,4.6,-,N/A,,Clear,220,2013-06-15 09:53:00
3:53 AM,60.1,45.0,57,29.78,10.0,SW,9.2,-,N/A,,Clear,230,2013-06-15 10:53:00
4:53 AM,57.9,46.0,65,29.80,10.0,WSW,9.2,-,N/A,,Clear,240,2013-06-15 11:53:00
5:53 AM,57.0,46.0,67,29.81,10.0,SW,6.9,-,N/A,,Clear,230,2013-06-15 12:53:00
6:53 AM,57.9,46.9,67,29.83,10.0,SW,4.6,-,N/A,,Clear,230,2013-06-15 13:53:00
7:53 AM,64.0,46.9,54,29.85,10.0,SSW,4.6,-,N/A,,Clear,210,2013-06-15 14:53:00
8:53 AM,70.0,46.9,44,29.86,10.0,SW,4.6,-,N/A,,Clear,220,2013-06-15 15:53:00
9:53 AM,73.9,48.0,40,29.87,10.0,West,4.6,-,N/A,,Clear,280,2013-06-15 16:53:00
10:53 AM,78.1,48.0,35,29.87,10.0,SSE,8.1,-,N/A,,Clear,150,2013-06-15 17:53:00
11:53 AM,81.0,48.9,33,29.88,10.0,SSE,8.1,-,N/A,,Clear,150,2013-06-15 18:53:00
12:53 PM,84.0,46.0,26,29.87,10.0,South,9.2,-,N/A,,Clear,170,2013-06-15 19:53:00
1:53 PM,84.9,43.0,23,29.86,10.0,SSW,8.1,-,N/A,,Clear,200,2013-06-15 20:53:00
2:53 PM,86.0,50.0,29,29.85,10.0,SSW,10.4,-,N/A,,Clear,210,2013-06-15 21:53:00
3:53 PM,87.1,50.0,28,29.84,10.0,South,12.7,17.3,N/A,,Clear,190,2013-06-15 22:53:00
4:53 PM,87.1,48.9,27,29.83,10.0,SW,12.7,-,N/A,,Clear,220,2013-06-15 23:53:00
5:53 PM,82.9,50.0,32,29.84,10.0,SW,12.7,19.6,N/A,,Clear,220,2013-06-16 00:53:00
6:53 PM,80.1,48.0,32,29.84,10.0,SSW,9.2,17.3,N/A,,Clear,200,2013-06-16 01:53:00
7:53 PM,73.0,48.9,42,29.86,10.0,SSW,6.9,-,N/A,,Clear,200,2013-06-16 02:53:00
8:53 PM,71.1,48.0,44,29.86,10.0,South,4.6,-,N/A,,Clear,190,2013-06-16 03:53:00
9:53 PM,66.9,48.0,51,29.88,10.0,SSE,4.6,-,N/A,,Clear,150,2013-06-16 04:53:00
10:53 PM,64.0,48.0,56,29.90,10.0,South,4.6,-,N/A,,Clear,180,2013-06-16 05:53:00
11:53 PM,63.0,46.9,56,29.90,10.0,Variable,3.5,-,N/A,,Clear,0,2013-06-16 06:53:00